User: anonymous   Login
Location: Unspecified
(0.0000°N, 0.0000°E)
Time: 09:04:24
(UTC+00:00)
Language:

CLOUDSAT - Orbit

View from above orbital plane
View from above orbital plane
View from above satellite
View from above satellite

Ground track
Ground track

The orbit data is extracted from the following two-line orbital elements,

1 29107U 06016A   17054.85320582  .00000215  00000-0  57707-4 0  9990
2 29107  98.2077   0.5154 0002041  69.1155 291.0262 14.57108758575929
Epoch (UTC): 23 February 2017 20:28:36
Eccentricity: 0.0002041
inclination: 98.2077°
perigee height: 701 km
apogee height: 704 km
right ascension of ascending node: 0.5154°
argument of perigee: 69.1155°
revolutions per day: 14.57108758
mean anomaly at epoch: 291.0262°
orbit number at epoch: 57592

The dashed part of the orbit path shows where the satellite is in the earth's shadow,  

DLR